Simultaneous Nadir Overpasses (SNOs) Predictions

Prediction of SNOs between NOAA-19 and NPP Satellite Orbit:

Table of predicted SNOs for the next 14.0 days since TLE Epoch: 7/16/2016
Index Date (NOAA-19) Time (NOAA-19) Lat,Lon (NOAA-19) SZA (NOAA-19 ) Date (NPP) Time (NPP) Lat,Lon (NPP) SZA (NPP ) Distance(km) Time Diff (sec)
1 07/16/2016 23:18:48 -80.99, -42.61 116.22 07/16/2016 23:19:54 -80.98, -42.63 116.26 0.36 66
2 07/17/2016 00:09:53 80.99, 124.52 63.80 07/17/2016 00:10:39 80.99, 124.64 63.76 2.02 46
3 07/17/2016 01:00:50 -80.99, -68.11 116.21 07/17/2016 01:01:24 -80.99, -68.05 116.24 1.08 34
4 07/17/2016 01:51:54 80.99, 99.39 63.76 07/17/2016 01:52:09 80.99, 99.21 63.78 3.15 15
5 07/17/2016 02:42:52 -80.99, -93.61 116.20 07/17/2016 02:42:54 -80.99, -93.47 116.22 2.43 2
6 07/17/2016
